Regional Weather Roundup
Issued by NWS

Home | Current Version | Previous Version | Graphics & Text | Print | Product List | Glossary On
Versions: 1 2 3 4 5 6 7 8 9 10 11 12 13 14 15 16 17 18 19 20 21 22 23 24 25 26 27 28 29 30 31 32 33 34 35 36 37 38 39 40 41 42 43 44 45 46 47 48 49 50
000
ASUS43 KMPX 211301
RWRMN
WEATHER ROUNDUP FOR MINNESOTA
NATIONAL WEATHER SERVICE TWIN CITIES/CHANHASSEN MN
700 AM CST SUN JAN 21 2018


NOTE: "FAIR" INDICATES FEW OR NO CLOUDS BELOW 12,000 FEET WITH NO
SIGNIFICANT WEATHER AND/OR OBSTRUCTIONS TO VISIBILITY. N/A MEANS
CURRENT SKY AND/OR WEATHER CONDITIONS ARE NOT AVAILABLE.

MNZ060>063-068>070-211400-
   Twin Cities Metro

CITY           SKY/WX    TMP DP  RH WIND       PRES   REMARKS
TWIN CITIES    CLOUDY    34  31  88 N6        29.96R WCI  29
ST PAUL        CLOUDY    34  30  85 NW5       29.98R WCI  30
CRYSTAL        CLOUDY    34  27  75 N5        29.96R WCI  30
BLAINE         CLOUDY    34  34 100 N3        29.96S
LAKEVILLE      CLOUDY    32  30  93 N3        29.95S
EDEN PRAIRIE   CLOUDY    35  29  78 N6        29.95R WCI  30
SOUTH ST PAUL  CLOUDY    32  31  97 CALM      29.96S
LAKE ELMO      CLOUDY    32  32 100 N3        29.97S
$$
MNZ001>005-007-008-013>017-022>024-027-028-211400-
   Northwest Minnesota

CITY           SKY/WX    TMP DP  RH WIND       PRES   REMARKS
BEMIDJI        FAIR       7   4  89 NW3       29.97R
HALLOCK        CLOUDY    19  18  93 CALM      30.04R
ROSEAU         CLOUDY    23  19  86 CALM      30.01R FOG
WARROAD        CLOUDY    23  19  86 NW5       30.01R WCI  17
THIEF RVR FALL CLOUDY    16  14  93 N9        30.01R FOG     WCI   4
CROOKSTON      FOG       16  14  93 N7        30.03S VSB 1/2 WCI   6
FOSSTON        FOG        9   7  92 CALM      30.00R VSB 1/2
DETROIT LAKES  FOG       19  19 100 CALM      29.98R VSB 1/2
MOORHEAD       FAIR      18  16  93 N7        30.01R WCI   8
PARK RAPIDS    FOG       13   9  84 CALM      29.96R VSB 1/2
MAHNOMEN       FOG       13  10  91 CALM      29.98S VSB 1/2
$$
MNZ006-009>011-018-025>026-211400-
   North Central Minnesota

CITY           SKY/WX    TMP DP  RH WIND       PRES   REMARKS
BAUDETTE       FOG       21  20  96 NW8       29.98R VSB 1/2 WCI  11
FLAG ISLAND    CLOUDY    23  21  93 NW6       29.99R WCI  16
INTL FALLS     FOG       10   7  87 CALM      29.96R VSB 1/4
WASKISH        CLOUDY    16  14  93 CALM      29.98R FOG
BIG FORK       CLOUDY     9   7  92 CALM      29.97R
LONGVILLE      FAIR      12  10  92 CALM      29.97R
GRAND RAPIDS   FOG       13  11  92 CALM      29.98R VSB 1/2
CRANE LAKE     CLOUDY    12  10  92 CALM      29.99R
ORR            FOG       19  16  86 CALM      29.94R VSB 1/2
COOK           CLOUDY    10   7  85 CALM      29.96R
WALKER         FAIR      20  18  95 CALM      29.96S
$$
MNZ012-019>021-037-211400-
   Northeast Minnesota

CITY           SKY/WX    TMP DP  RH WIND       PRES   REMARKS
DULUTH         FAIR      24  22  91 N5        29.94S WCI  18
HIBBING        FOG        8   5  87 CALM      29.96R VSB 1/4
EVELETH        CLOUDY     7   3  83 CALM      29.97R FOG
DULUTH HARBOR  FAIR      27  25  93 CALM      29.99S
TWO HARBORS    FAIR      25  19  80 CALM      29.95R
SILVER BAY     FAIR      18  18 100 CALM      29.95R
GRAND MARAIS     N/A     30  29  96 CALM      29.98R
G MARAIS ARPRT FAIR      23  19  86 CALM      29.92R
$$
MNZ029>031-032-039>041-046>048-054>057-064-211400-
   West Central Minnesota

CITY           SKY/WX    TMP DP  RH WIND       PRES   REMARKS
FERGUS FALLS   CLOUDY    27  27 100 CALM      29.98R
MORRIS         CLOUDY    30  28  93 NW5       29.97R WCI  25
ALEXANDRIA     FAIR      30  28  92 CALM      29.96R
ELBOW LAKE     FAIR      28  27  98 CALM      29.98R
WADENA         FOG       19  19 100 CALM      29.97R VSB 1/4
GLENWOOD       FAIR      32  28  86 CALM      29.97R
APPLETON       CLOUDY    34  28  80 N3        29.98R
BENSON         CLOUDY    30  28  93 CALM      29.99R
ORTONVILLE     CLOUDY    34  27  75 N6        29.97S WCI  29
MADISON        CLOUDY    37  30  75 N7        29.98R
WILLMAR        FAIR      34  30  86 N3        29.99R
$$
MNZ033>034-036-042>043-049>051-058-059-211400-
   Central Minnesota

CITY           SKY/WX    TMP DP  RH WIND       PRES   REMARKS
ST CLOUD       CLOUDY    30  28  92 CALM      29.96S
SAUK CENTRE      N/A     29  28  94 CALM      29.97R
PAYNESVILLE    CLOUDY    30  30  99 CALM      29.97R
AITKIN         FOG       19  18  93 CALM      29.95S VSB 3/4
PINE RIVER     CLOUDY    16  14  93 CALM      30.00R FOG
BRAINERD       FAIR      24  22  91 CALM      29.97R FOG
STAPLES        FOG       21  21 100 CALM      29.97R VSB 1/4
LONG PRAIRIE   FAIR      30  28  93 CALM      29.97R
LITTLE FALLS   MOCLDY    28  25  86 CALM      29.98R
LITCHFIELD     MOCLDY    34  30  86 CALM      29.97R
BUFFALO        CLOUDY    32  29  90 CALM      29.97S
MAPLE LAKE     CLOUDY    34  31  89 MISG      29.98R
HUTCHINSON     CLOUDY    36  31  83 N3        29.97S
$$
MNZ037-044-045-052-053-211400-
   East Central Minnesota

CITY           SKY/WX    TMP DP  RH WIND       PRES   REMARKS
PRINCETON      FAIR      30  28  93 CALM      29.97S
MORA           FAIR      28  27  93 CALM      29.98F
CAMBRIDGE        N/A     34  25  69 CALM      29.97S
RUSH CITY      MOCLDY    29  26  90 CALM      29.96F
MOOSE LAKE     FAIR      28  27  93 CALM      29.95S
HINCKLEY       PTSUNNY   32  28  86 CALM      29.96S
CLOQUET        FAIR      25  21  86 NW3       29.95S
MCGREGOR       FAIR      21  19  93 CALM      29.96F
$$
MNZ071>073-080-081-089-090-097-098-211400-
   Southwest Minnesota

CITY           SKY/WX    TMP DP  RH WIND       PRES   REMARKS
MONTEVIDEO     CLOUDY    34  28  80 N6        29.97S WCI  29
GRANITE FALLS  CLOUDY    37  32  82 NW9       29.98R
CANBY          CLOUDY    37  30  76 NW6       29.98R
MARSHALL       CLOUDY    33  28  81 NW3       29.97R
REDWOOD FALLS  CLOUDY    34  30  85 N3        29.95R
OLIVIA         CLOUDY    34  32  93 N6        29.95S WCI  29
PIPESTONE      CLOUDY    34  27  75 NE6       29.92S WCI  29
WINDOM         CLOUDY    30  16  55 CALM      29.94R
WORTHINGTON    CLOUDY    27  26  96 N7        29.93S WCI  19
JACKSON        CLOUDY    28  27  93 NE8       29.93S WCI  20
TRACY          CLOUDY    32  29  90 NW6       29.95R WCI  26
SLAYTON        MOCLDY    32  28  87 N8        29.93F WCI  25
$$
MNZ065>067-074>077-082>085-091>093-211400-
   South Central Minnesota

CITY           SKY/WX    TMP DP  RH WIND       PRES   REMARKS
MANKATO        FAIR      31  28  89 CALM      29.96R
NEW ULM        CLOUDY    32  27  80 NE3       29.95S
ST JAMES       CLOUDY    27  25  93 CALM      29.95F
FAIRMONT       CLOUDY    27  26  96 N9        29.94S WCI  18
FARIBAULT      FAIR      27  25  93 CALM      29.95R FOG
OWATONNA       FAIR      25  21  86 CALM      29.94S
WASECA         FAIR      27  25  93 CALM      29.95S
ALBERT LEA     FAIR      28  27  93 NE6       29.93R WCI  22
$$
MNZ078>079-086>088-094>096-211400-
   Southeast Minnesota

CITY           SKY/WX    TMP DP  RH WIND       PRES   REMARKS
ROCHESTER      MIX PCPN  28  28 100 N5        29.93R FOG     WCI  23
RED WING         N/A     27  25  93 CALM      29.95R FOG
STANTON        FOG       24  22  93 S3        29.94R VSB 1/2
DODGE CENTER   FAIR      28  28 100 NE5       29.93S FOG     WCI  23
WINONA         FOG       23  21  93 CALM      29.95R VSB<1/4
AUSTIN         FAIR      30  27  86 NE3       29.92R
PRESTON        FAIR      26  25  94 SE6       29.93R FOG     WCI  20
$$
ABBREVIATIONS USED IN REMARKS
   TC - TEMPERATURES IN CELSIUS
  WCI - WIND CHILL INDEX
   HX - HEAT INDEX
  VSB - VISIBILITY
$$




USA.gov is the U.S. government's official web portal to all federal, state and local government web resources and services.